Location: Brabourne
(51.1333°N, 1.0000°E)
Time: 06:36:39
(UTC+00:00)

Meteor 2-2 Rocket - Pass Details

Date: 20 June 2021
Orbit: 853 x 928 km, 81.3° (Epoch: 31 July)

Event Time Altitude Azimuth Distance (km) Brightness Sun altitude
Rises 00:46:36 0° 347° (NNW) 3,583 8.7 -14.7°
Reaches altitude 10° 00:49:06 10° 348° (NNW) 2,641 7.9 -14.6°
Maximum altitude 00:55:10 86° 78° (ENE) 939 4.4 -14.4°
Enters shadow 01:00:06 16° 167° (SSE) 2,215 5.8 -14.2°
